This demonstration page uses our WeatherBlox Daily Observations layout. Learn more.

Left ArrowRight Arrow

Hourly Observations for May 16, 2022

Temp ( °F °C ) Dew Point ( °F °C ) Humidity (%) Winds ( mph kmh ) Pressure ( in mb ) Visibility ( mi km ) Precip ( " mm )
12:53 am 00:53 Clear 74 23.3 39 3.9 28 28 NW 12 19 29.89 1012 10 16 0.00 0.00
1:53 am 01:53 Clear 72 22.2 34 1.1 25 25 WNW 8 13 29.89 1012 10 16 0.00 0.00
2:53 am 02:53 Clear 65 18.3 41 5 42 42 Calm 29.90 1013 10 16 0.00 0.00
3:53 am 03:53 Clear 59 15 44 6.7 58 58 Calm 29.92 1013 10 16 0.00 0.00
4:53 am 04:53 Clear 56 13.3 44 6.7 65 65 Calm 29.93 1013 10 16 0.00 0.00
5:53 am 05:53 Sunny 54 12.2 45 7.2 72 72 NE 5 7 29.94 1014 10 16 0.00 0.00
6:53 am 06:53 Sunny 56 13.3 45 7.2 67 67 Calm 29.96 1014 10 16 0.00 0.00
7:53 am 07:53 Sunny 63 17.2 45 7.2 52 52 Calm 29.97 1015 10 16 0.00 0.00
8:53 am 08:53 Sunny 67 19.4 47 8.3 49 49 Calm 29.97 1015 10 16 0.00 0.00
9:53 am 09:53 Sunny 72 22.2 45 7.2 38 38 E 3 6 29.97 1015 10 16 0.00 0.00
10:53 am 10:53 Sunny 74 23.3 42 5.6 32 32 Calm 29.97 1015 10 16 0.00 0.00
11:53 am 11:53 Sunny 76 24.4 38 3.3 25 25 SSE 6 9 29.96 1015 10 16 0.00 0.00
12:53 pm 12:53 Sunny 79 26.1 37 2.8 22 22 Calm 29.94 1014 10 16 0.00 0.00
1:53 pm 13:53 Sunny 81 27.2 38 3.3 21 21 W 5 7 29.92 1013 10 16 0.00 0.00
2:53 pm 14:53 Sunny 83 28.3 36 2.2 19 19 Calm 29.91 1013 10 16 0.00 0.00
3:53 pm 15:53 Sunny 83 28.3 33 0.6 17 17 SSE 6 9 29.89 1012 10 16 0.00 0.00
4:53 pm 16:53 Sunny 85 29.4 40 4.4 20 20 S 14 22 29.87 1012 10 16 0.00 0.00
5:53 pm 17:53 Sunny 85 29.4 37 2.8 18 18 S 10 17 29.87 1011 10 16 0.00 0.00
6:53 pm 18:53 Sunny 84 28.9 36 2.2 18 18 S 9 15 29.86 1011 10 16 0.00 0.00
7:53 pm 19:53 Sunny 81 27.2 38 3.3 21 21 SSW 5 7 29.86 1011 10 16 0.00 0.00
8:53 pm 20:53 Clear 76 24.4 44 6.7 32 32 SW 3 6 29.88 1012 10 16 0.00 0.00
9:53 pm 21:53 Clear 72 22.2 44 6.7 37 37 Calm 29.90 1013 10 16 0.00 0.00
10:53 pm 22:53 Clear 69 20.6 45 7.2 42 42 NE 5 7 29.92 1013 10 16 0.00 0.00
11:53 pm 23:53 Clear 63 17.2 46 7.8 54 54 VRB 3 6 29.93 1014 10 16 0.00 0.00

Powered by AerisWeather